Year,Month,Day,Hour,Minute,Value (Times are PST for temperature in C)
2014,07,27,00,00,17.10
2014,07,27,00,01,17.10
2014,07,27,00,02,17.10
2014,07,27,00,03,17.10
2014,07,27,00,04,17.10
2014,07,27,00,05,17.10
2014,07,27,00,06,17.10
2014,07,27,00,07,17.20
2014,07,27,00,08,17.20
2014,07,27,00,09,17.20
2014,07,27,00,10,17.20
2014,07,27,00,11,17.20
2014,07,27,00,12,17.20
2014,07,27,00,13,17.20
2014,07,27,00,14,17.20
2014,07,27,00,15,17.20
2014,07,27,00,16,17.20
2014,07,27,00,17,17.20
2014,07,27,00,18,17.20
2014,07,27,00,19,17.20
2014,07,27,00,20,17.20
2014,07,27,00,21,17.20
2014,07,27,00,22,17.20
2014,07,27,00,23,17.20
2014,07,27,00,24,17.20
2014,07,27,00,25,17.20
2014,07,27,00,26,17.20
2014,07,27,00,27,17.20
2014,07,27,00,28,17.10
2014,07,27,00,29,17.10
2014,07,27,00,30,17.10
2014,07,27,00,31,17.10
2014,07,27,00,32,17.10
2014,07,27,00,33,17.10
2014,07,27,00,34,17.10
2014,07,27,00,35,17.10
2014,07,27,00,36,17.10
2014,07,27,00,37,17.10
2014,07,27,00,38,17.00
2014,07,27,00,39,17.00
2014,07,27,00,40,17.00
2014,07,27,00,41,17.00
2014,07,27,00,42,17.00
2014,07,27,00,43,17.00
2014,07,27,00,44,17.00
2014,07,27,00,45,16.90
2014,07,27,00,46,16.90
2014,07,27,00,47,16.90
2014,07,27,00,48,16.90
2014,07,27,00,49,16.90
2014,07,27,00,50,16.90
2014,07,27,00,51,16.90
2014,07,27,00,52,16.90
2014,07,27,00,53,16.90
2014,07,27,00,54,16.90
2014,07,27,00,55,16.90
2014,07,27,00,56,16.90
2014,07,27,00,57,16.90
2014,07,27,00,58,16.90
2014,07,27,00,59,16.90
2014,07,27,01,00,16.90
2014,07,27,01,01,16.90
2014,07,27,01,02,16.90
2014,07,27,01,03,16.90
2014,07,27,01,04,16.80
2014,07,27,01,05,16.80
2014,07,27,01,06,16.80
2014,07,27,01,07,16.70
2014,07,27,01,08,16.70
2014,07,27,01,09,16.70
2014,07,27,01,10,16.70
2014,07,27,01,11,16.60
2014,07,27,01,12,16.60
2014,07,27,01,13,16.60
2014,07,27,01,14,16.60
2014,07,27,01,15,16.60
2014,07,27,01,16,16.60
2014,07,27,01,17,16.50
2014,07,27,01,18,16.40
2014,07,27,01,19,16.40
2014,07,27,01,20,16.40
2014,07,27,01,21,16.40
2014,07,27,01,22,16.40
2014,07,27,01,23,16.30
2014,07,27,01,24,16.30
2014,07,27,01,25,16.30
2014,07,27,01,26,16.20
2014,07,27,01,27,16.20
2014,07,27,01,28,16.10
2014,07,27,01,29,16.10
2014,07,27,01,30,16.10
2014,07,27,01,31,16.10
2014,07,27,01,32,16.10
2014,07,27,01,33,16.10
2014,07,27,01,34,16.10
2014,07,27,01,35,16.10
2014,07,27,01,36,16.10
2014,07,27,01,37,16.00
2014,07,27,01,38,15.90
2014,07,27,01,39,15.90
2014,07,27,01,40,15.90
2014,07,27,01,41,15.80
2014,07,27,01,42,15.80
2014,07,27,01,43,15.80
2014,07,27,01,44,15.80
2014,07,27,01,45,15.80
2014,07,27,01,46,15.70
2014,07,27,01,47,15.70
2014,07,27,01,48,15.70
2014,07,27,01,49,15.70
2014,07,27,01,50,15.60
2014,07,27,01,51,15.60
2014,07,27,01,52,15.60
2014,07,27,01,53,15.60
2014,07,27,01,54,15.50
2014,07,27,01,55,15.50
2014,07,27,01,56,15.50
2014,07,27,01,57,15.40
2014,07,27,01,58,15.40
2014,07,27,01,59,15.40
2014,07,27,02,00,15.30
2014,07,27,02,01,15.30
2014,07,27,02,02,15.30
2014,07,27,02,03,15.30
2014,07,27,02,04,15.20
2014,07,27,02,05,15.20
2014,07,27,02,06,15.10
2014,07,27,02,07,15.10
2014,07,27,02,08,15.00
2014,07,27,02,09,15.00
2014,07,27,02,10,15.00
2014,07,27,02,11,14.90
2014,07,27,02,12,14.90
2014,07,27,02,13,14.80
2014,07,27,02,14,14.80
2014,07,27,02,15,14.80
2014,07,27,02,16,14.80
2014,07,27,02,17,14.80
2014,07,27,02,18,14.70
2014,07,27,02,19,14.70
2014,07,27,02,20,14.60
2014,07,27,02,21,14.60
2014,07,27,02,22,14.60
2014,07,27,02,23,14.50
2014,07,27,02,24,14.50
2014,07,27,02,25,14.50
2014,07,27,02,26,14.40
2014,07,27,02,27,14.40
2014,07,27,02,28,14.40
2014,07,27,02,29,14.30
2014,07,27,02,30,14.30
2014,07,27,02,31,14.20
2014,07,27,02,32,14.20
2014,07,27,02,33,14.20
2014,07,27,02,34,14.20
2014,07,27,02,35,14.20
2014,07,27,02,36,14.10
2014,07,27,02,37,14.10
2014,07,27,02,38,14.00
2014,07,27,02,39,14.00
2014,07,27,02,40,14.00
2014,07,27,02,41,14.00
2014,07,27,02,42,13.90
2014,07,27,02,43,13.90
2014,07,27,02,44,13.90
2014,07,27,02,45,13.90
2014,07,27,02,46,13.80
2014,07,27,02,47,13.80
2014,07,27,02,48,13.80
2014,07,27,02,49,13.70
2014,07,27,02,50,13.70
2014,07,27,02,51,13.70
2014,07,27,02,52,13.70
2014,07,27,02,53,13.70
2014,07,27,02,54,13.70
2014,07,27,02,55,13.70
2014,07,27,02,56,13.60
2014,07,27,02,57,13.60
2014,07,27,02,58,13.60
2014,07,27,02,59,13.60
2014,07,27,03,00,13.60
2014,07,27,03,01,13.60
2014,07,27,03,02,13.60
2014,07,27,03,03,13.50
2014,07,27,03,04,13.50
2014,07,27,03,05,13.50
2014,07,27,03,06,13.50
2014,07,27,03,07,13.50
2014,07,27,03,08,13.40
2014,07,27,03,09,13.40
2014,07,27,03,10,13.40
2014,07,27,03,11,13.40
2014,07,27,03,12,13.40
2014,07,27,03,13,13.30
2014,07,27,03,14,13.30
2014,07,27,03,15,13.30
2014,07,27,03,16,13.30
2014,07,27,03,17,13.30
2014,07,27,03,18,13.30
2014,07,27,03,19,13.30
2014,07,27,03,20,13.30
2014,07,27,03,21,13.20
2014,07,27,03,22,13.20
2014,07,27,03,23,13.20
2014,07,27,03,24,13.20
2014,07,27,03,25,13.10
2014,07,27,03,26,13.10
2014,07,27,03,27,13.10
2014,07,27,03,28,13.10
2014,07,27,03,29,13.10
2014,07,27,03,30,13.10
2014,07,27,03,31,13.10
2014,07,27,03,32,13.00
2014,07,27,03,33,13.00
2014,07,27,03,34,13.00
2014,07,27,03,35,13.00
2014,07,27,03,36,13.00
2014,07,27,03,37,13.00
2014,07,27,03,38,13.00
2014,07,27,03,39,13.00
2014,07,27,03,40,12.90
2014,07,27,03,41,12.90
2014,07,27,03,42,12.90
2014,07,27,03,43,12.90
2014,07,27,03,44,12.90
2014,07,27,03,45,12.90
2014,07,27,03,46,12.80
2014,07,27,03,47,12.80
2014,07,27,03,48,12.80
2014,07,27,03,49,12.80
2014,07,27,03,50,12.80
2014,07,27,03,51,12.80
2014,07,27,03,52,12.80
2014,07,27,03,53,12.80
2014,07,27,03,54,12.80
2014,07,27,03,55,12.80
2014,07,27,03,56,12.80
2014,07,27,03,57,12.80
2014,07,27,03,58,12.80
2014,07,27,03,59,12.70
2014,07,27,04,00,12.70
2014,07,27,04,01,12.70
2014,07,27,04,02,12.70
2014,07,27,04,03,12.70
2014,07,27,04,04,12.70
2014,07,27,04,05,12.70
2014,07,27,04,06,12.70
2014,07,27,04,07,12.60
2014,07,27,04,08,12.60
2014,07,27,04,09,12.60
2014,07,27,04,10,12.60
2014,07,27,04,11,12.60
2014,07,27,04,12,12.60
2014,07,27,04,13,12.60
2014,07,27,04,14,12.60
2014,07,27,04,15,12.60
2014,07,27,04,16,12.60
2014,07,27,04,17,12.50
2014,07,27,04,18,12.50
2014,07,27,04,19,12.50
2014,07,27,04,20,12.50
2014,07,27,04,21,12.50
2014,07,27,04,22,12.50
2014,07,27,04,23,12.50
2014,07,27,04,24,12.50
2014,07,27,04,25,12.50
2014,07,27,04,26,12.50
2014,07,27,04,27,12.40
2014,07,27,04,28,12.40
2014,07,27,04,29,12.40
2014,07,27,04,30,12.40
2014,07,27,04,31,12.40
2014,07,27,04,32,12.40
2014,07,27,04,33,12.30
2014,07,27,04,34,12.30
2014,07,27,04,35,12.30
2014,07,27,04,36,12.30
2014,07,27,04,37,12.30
2014,07,27,04,38,12.30
2014,07,27,04,39,12.30
2014,07,27,04,40,12.30
2014,07,27,04,41,12.30
2014,07,27,04,42,12.30
2014,07,27,04,43,12.30
2014,07,27,04,44,12.30
2014,07,27,04,45,12.30
2014,07,27,04,46,12.30
2014,07,27,04,47,12.30
2014,07,27,04,48,12.30
2014,07,27,04,49,12.30
2014,07,27,04,50,12.20
2014,07,27,04,51,12.20
2014,07,27,04,52,12.20
2014,07,27,04,53,12.20
2014,07,27,04,54,12.20
2014,07,27,04,55,12.20
2014,07,27,04,56,12.10
2014,07,27,04,57,12.10
2014,07,27,04,58,12.10
2014,07,27,04,59,12.10
2014,07,27,05,00,12.10
2014,07,27,05,01,12.10
2014,07,27,05,02,12.10
2014,07,27,05,03,12.10
2014,07,27,05,04,12.10
2014,07,27,05,05,12.10
2014,07,27,05,06,12.10
2014,07,27,05,07,12.10
2014,07,27,05,08,12.00
2014,07,27,05,09,12.00
2014,07,27,05,10,12.00
2014,07,27,05,11,12.00
2014,07,27,05,12,12.00
2014,07,27,05,13,12.00
2014,07,27,05,14,12.00
2014,07,27,05,15,12.00
2014,07,27,05,16,12.00
2014,07,27,05,17,12.00
2014,07,27,05,18,12.00
2014,07,27,05,19,12.00
2014,07,27,05,20,12.00
2014,07,27,05,21,11.90
2014,07,27,05,22,11.90
2014,07,27,05,23,11.90
2014,07,27,05,24,11.90
2014,07,27,05,25,11.90
2014,07,27,05,26,11.90
2014,07,27,05,27,11.80
2014,07,27,05,28,11.80
2014,07,27,05,29,11.80
2014,07,27,05,30,11.80
2014,07,27,05,31,11.80
2014,07,27,05,32,11.80
2014,07,27,05,33,11.80
2014,07,27,05,34,11.80
2014,07,27,05,35,11.80
2014,07,27,05,36,11.80
2014,07,27,05,37,11.80
2014,07,27,05,38,11.80
2014,07,27,05,39,11.80
2014,07,27,05,40,11.80
2014,07,27,05,41,11.80
2014,07,27,05,42,11.80
2014,07,27,05,43,11.80
2014,07,27,05,44,11.80
2014,07,27,05,45,11.80
2014,07,27,05,46,11.80
2014,07,27,05,47,11.70
2014,07,27,05,48,11.70
2014,07,27,05,49,11.70
2014,07,27,05,50,11.70
2014,07,27,05,51,11.70
2014,07,27,05,52,11.70
2014,07,27,05,53,11.70
2014,07,27,05,54,11.70
2014,07,27,05,55,11.70
2014,07,27,05,56,11.70
2014,07,27,05,57,11.70
2014,07,27,05,58,11.70
2014,07,27,05,59,11.70
2014,07,27,06,00,11.70
2014,07,27,06,01,11.70
2014,07,27,06,02,11.70
2014,07,27,06,03,11.70
2014,07,27,06,04,11.70
2014,07,27,06,05,11.70
2014,07,27,06,06,11.70
2014,07,27,06,07,11.70
2014,07,27,06,08,11.70
2014,07,27,06,09,11.70
2014,07,27,06,10,11.70
2014,07,27,06,11,11.70
2014,07,27,06,12,11.70
2014,07,27,06,13,11.70
2014,07,27,06,14,11.70
2014,07,27,06,15,11.70
2014,07,27,06,16,11.80
2014,07,27,06,17,11.80
2014,07,27,06,18,11.80
2014,07,27,06,19,11.80
2014,07,27,06,20,11.80
2014,07,27,06,21,11.80
2014,07,27,06,22,11.80
2014,07,27,06,23,11.80
2014,07,27,06,24,11.80
2014,07,27,06,25,11.80
2014,07,27,06,26,11.80
2014,07,27,06,27,11.80
2014,07,27,06,28,11.90
2014,07,27,06,29,12.00
2014,07,27,06,30,12.00
2014,07,27,06,31,12.10
2014,07,27,06,32,12.20
2014,07,27,06,33,12.30
2014,07,27,06,34,12.40
2014,07,27,06,35,12.50
2014,07,27,06,36,12.50
2014,07,27,06,37,12.60
2014,07,27,06,38,12.70
2014,07,27,06,39,12.80
2014,07,27,06,40,12.80
2014,07,27,06,41,12.90
2014,07,27,06,42,13.00
2014,07,27,06,43,13.00
2014,07,27,06,44,13.10
2014,07,27,06,45,13.20
2014,07,27,06,46,13.30
2014,07,27,06,47,13.30
2014,07,27,06,48,13.40
2014,07,27,06,49,13.50
2014,07,27,06,50,13.60
2014,07,27,06,51,13.70
2014,07,27,06,52,13.80
2014,07,27,06,53,13.90
2014,07,27,06,54,13.90
2014,07,27,06,55,14.00
2014,07,27,06,56,14.10
2014,07,27,06,57,14.20
2014,07,27,06,58,14.20
2014,07,27,06,59,14.30
2014,07,27,07,00,14.40
2014,07,27,07,01,14.50
2014,07,27,07,02,14.60
2014,07,27,07,03,14.60
2014,07,27,07,04,14.70
2014,07,27,07,05,14.70
2014,07,27,07,06,14.80
2014,07,27,07,07,14.80
2014,07,27,07,08,14.90
2014,07,27,07,09,14.90
2014,07,27,07,10,14.90
2014,07,27,07,11,15.00
2014,07,27,07,12,15.10
2014,07,27,07,13,15.10
2014,07,27,07,14,15.20
2014,07,27,07,15,15.30
2014,07,27,07,16,15.30
2014,07,27,07,17,15.40
2014,07,27,07,18,15.50
2014,07,27,07,19,15.60
2014,07,27,07,20,15.70
2014,07,27,07,21,15.80
2014,07,27,07,22,15.90
2014,07,27,07,23,16.10
2014,07,27,07,24,16.10
2014,07,27,07,25,16.20
2014,07,27,07,26,16.40
2014,07,27,07,27,16.50
2014,07,27,07,28,16.60
2014,07,27,07,29,16.70
2014,07,27,07,30,16.80
2014,07,27,07,31,16.90
2014,07,27,07,32,17.00
2014,07,27,07,33,17.10
2014,07,27,07,34,17.20
2014,07,27,07,35,17.30
2014,07,27,07,36,17.40
2014,07,27,07,37,17.60
2014,07,27,07,38,17.70
2014,07,27,07,39,17.80
2014,07,27,07,40,17.90
2014,07,27,07,41,17.90
2014,07,27,07,42,17.90
2014,07,27,07,43,18.10
2014,07,27,07,44,18.10
2014,07,27,07,45,18.10
2014,07,27,07,46,18.10
2014,07,27,07,47,18.20
2014,07,27,07,48,18.20
2014,07,27,07,49,18.30
2014,07,27,07,50,18.40
2014,07,27,07,51,18.50
2014,07,27,07,52,18.50
2014,07,27,07,53,18.60
2014,07,27,07,54,18.60
2014,07,27,07,55,18.70
2014,07,27,07,56,18.70
2014,07,27,07,57,18.80
2014,07,27,07,58,18.80
2014,07,27,07,59,18.80
2014,07,27,08,00,18.80
2014,07,27,08,01,18.80
2014,07,27,08,02,18.80
2014,07,27,08,03,18.80
2014,07,27,08,04,18.80
2014,07,27,08,05,18.80
2014,07,27,08,06,18.80
2014,07,27,08,07,18.80
2014,07,27,08,08,18.90
2014,07,27,08,09,18.90
2014,07,27,08,10,18.90
2014,07,27,08,11,18.90
2014,07,27,08,12,18.90
2014,07,27,08,13,18.90
2014,07,27,08,14,19.00
2014,07,27,08,15,19.10
2014,07,27,08,16,19.10
2014,07,27,08,17,19.10
2014,07,27,08,18,19.20
2014,07,27,08,19,19.30
2014,07,27,08,20,19.30
2014,07,27,08,21,19.30
2014,07,27,08,22,19.30
2014,07,27,08,23,19.30
2014,07,27,08,24,19.30
2014,07,27,08,25,19.30
2014,07,27,08,26,19.30
2014,07,27,08,27,19.20
2014,07,27,08,28,19.20
2014,07,27,08,29,19.30
2014,07,27,08,30,19.30
2014,07,27,08,31,19.30
2014,07,27,08,32,19.30
2014,07,27,08,33,19.30
2014,07,27,08,34,19.30
2014,07,27,08,35,19.40
2014,07,27,08,36,19.40
2014,07,27,08,37,19.40
2014,07,27,08,38,19.50
2014,07,27,08,39,19.50
2014,07,27,08,40,19.50
2014,07,27,08,41,19.50
2014,07,27,08,42,19.50
2014,07,27,08,43,19.60
2014,07,27,08,44,19.60
2014,07,27,08,45,19.70
2014,07,27,08,46,19.80
2014,07,27,08,47,19.80
2014,07,27,08,48,19.90
2014,07,27,08,49,19.90
2014,07,27,08,50,19.90
2014,07,27,08,51,19.90
2014,07,27,08,52,20.00
2014,07,27,08,53,20.10
2014,07,27,08,54,20.20
2014,07,27,08,55,20.20
2014,07,27,08,56,20.20
2014,07,27,08,57,20.20
2014,07,27,08,58,20.30
2014,07,27,08,59,20.30
2014,07,27,09,00,20.40
2014,07,27,09,01,20.50
2014,07,27,09,02,20.50
2014,07,27,09,03,20.40
2014,07,27,09,04,20.40
2014,07,27,09,05,20.50
2014,07,27,09,06,20.50
2014,07,27,09,07,20.60
2014,07,27,09,08,20.60
2014,07,27,09,09,20.70
2014,07,27,09,10,20.80
2014,07,27,09,11,20.80
2014,07,27,09,12,20.80
2014,07,27,09,13,20.90
2014,07,27,09,14,20.90
2014,07,27,09,15,21.00
2014,07,27,09,16,21.00
2014,07,27,09,17,21.00
2014,07,27,09,18,21.10
2014,07,27,09,19,21.10
2014,07,27,09,20,21.10
2014,07,27,09,21,21.00
2014,07,27,09,22,21.00
2014,07,27,09,23,20.90
2014,07,27,09,24,20.90
2014,07,27,09,25,21.00
2014,07,27,09,26,21.10
2014,07,27,09,27,21.10
2014,07,27,09,28,21.20
2014,07,27,09,29,21.20
2014,07,27,09,30,21.20
2014,07,27,09,31,21.30
2014,07,27,09,32,21.30
2014,07,27,09,33,21.30
2014,07,27,09,34,21.30
2014,07,27,09,35,21.20
2014,07,27,09,36,21.10
2014,07,27,09,37,21.10
2014,07,27,09,38,21.00
2014,07,27,09,39,21.00
2014,07,27,09,40,21.00
2014,07,27,09,41,21.10
2014,07,27,09,42,21.10
2014,07,27,09,43,21.20
2014,07,27,09,44,21.30
2014,07,27,09,45,21.50
2014,07,27,09,46,21.60
2014,07,27,09,47,21.60
2014,07,27,09,48,21.60
2014,07,27,09,49,21.60
2014,07,27,09,50,21.60
2014,07,27,09,51,21.60
2014,07,27,09,52,21.70
2014,07,27,09,53,21.80
2014,07,27,09,54,21.90
2014,07,27,09,55,21.90
2014,07,27,09,56,21.70
2014,07,27,09,57,21.60
2014,07,27,09,58,21.60
2014,07,27,09,59,21.60
2014,07,27,10,00,21.60
2014,07,27,10,01,21.60
2014,07,27,10,02,21.60
2014,07,27,10,03,21.70
2014,07,27,10,04,21.70
2014,07,27,10,05,21.80
2014,07,27,10,06,21.90
2014,07,27,10,07,22.00
2014,07,27,10,08,22.10
2014,07,27,10,09,22.30
2014,07,27,10,10,22.30
2014,07,27,10,11,22.40
2014,07,27,10,12,22.50
2014,07,27,10,13,22.60
2014,07,27,10,14,22.60
2014,07,27,10,15,22.70
2014,07,27,10,16,22.60
2014,07,27,10,17,22.60
2014,07,27,10,18,22.50
2014,07,27,10,19,22.40
2014,07,27,10,20,22.20
2014,07,27,10,21,22.00
2014,07,27,10,22,21.90
2014,07,27,10,23,21.80
2014,07,27,10,24,21.60
2014,07,27,10,25,21.60
2014,07,27,10,26,21.50
2014,07,27,10,27,21.30
2014,07,27,10,28,21.10
2014,07,27,10,29,21.00
2014,07,27,10,30,20.90
2014,07,27,10,31,20.80
2014,07,27,10,32,20.70
2014,07,27,10,33,20.60
2014,07,27,10,34,20.50
2014,07,27,10,35,20.30
2014,07,27,10,36,20.20
2014,07,27,10,37,20.10
2014,07,27,10,38,20.10
2014,07,27,10,39,19.90
2014,07,27,10,40,20.00
2014,07,27,10,41,20.10
2014,07,27,10,42,20.10
2014,07,27,10,43,20.20
2014,07,27,10,44,20.20
2014,07,27,10,45,20.20
2014,07,27,10,46,20.20
2014,07,27,10,47,20.20
2014,07,27,10,48,20.20
2014,07,27,10,49,20.10
2014,07,27,10,50,20.10
2014,07,27,10,51,20.20
2014,07,27,10,52,20.30
2014,07,27,10,53,20.40
2014,07,27,10,54,20.50
2014,07,27,10,55,20.70
2014,07,27,10,56,20.70
2014,07,27,10,57,20.80
2014,07,27,10,58,20.80
2014,07,27,10,59,20.80
2014,07,27,11,00,20.70
2014,07,27,11,01,20.70
2014,07,27,11,02,20.70
2014,07,27,11,03,20.60
2014,07,27,11,04,20.60
2014,07,27,11,05,20.50
2014,07,27,11,06,20.50
2014,07,27,11,07,20.60
2014,07,27,11,08,20.70
2014,07,27,11,09,20.90
2014,07,27,11,10,21.10
2014,07,27,11,11,21.30
2014,07,27,11,12,21.40
2014,07,27,11,13,21.30
2014,07,27,11,14,21.30
2014,07,27,11,15,21.30
2014,07,27,11,16,21.30
2014,07,27,11,17,21.30
2014,07,27,11,18,21.20
2014,07,27,11,19,21.20
2014,07,27,11,20,21.30
2014,07,27,11,21,21.30
2014,07,27,11,22,21.30
2014,07,27,11,23,21.30
2014,07,27,11,24,21.30
2014,07,27,11,25,21.30
2014,07,27,11,26,21.50
2014,07,27,11,27,21.60
2014,07,27,11,28,21.70
2014,07,27,11,29,21.80
2014,07,27,11,30,21.80
2014,07,27,11,31,21.90
2014,07,27,11,32,22.00
2014,07,27,11,33,22.00
2014,07,27,11,34,22.00
2014,07,27,11,35,22.00
2014,07,27,11,36,21.90
2014,07,27,11,37,21.80
2014,07,27,11,38,21.90
2014,07,27,11,39,22.00
2014,07,27,11,40,22.20
2014,07,27,11,41,22.30
2014,07,27,11,42,22.30
2014,07,27,11,43,22.30
2014,07,27,11,44,22.40
2014,07,27,11,45,22.40
2014,07,27,11,46,22.40
2014,07,27,11,47,22.40
2014,07,27,11,48,22.40
2014,07,27,11,49,22.40
2014,07,27,11,50,22.40
2014,07,27,11,51,22.40
2014,07,27,11,52,22.50
2014,07,27,11,53,22.50
2014,07,27,11,54,22.60
2014,07,27,11,55,22.80
2014,07,27,11,56,22.80
2014,07,27,11,57,22.70
2014,07,27,11,58,22.50
2014,07,27,11,59,22.30
2014,07,27,12,00,22.20
2014,07,27,12,01,22.00
2014,07,27,12,02,21.80
2014,07,27,12,03,21.80
2014,07,27,12,04,21.80
2014,07,27,12,05,21.80
2014,07,27,12,06,21.70
2014,07,27,12,07,21.50
2014,07,27,12,08,21.40
2014,07,27,12,09,21.30
2014,07,27,12,10,21.30
2014,07,27,12,11,21.20
2014,07,27,12,12,21.20
2014,07,27,12,13,21.30
2014,07,27,12,14,21.30
2014,07,27,12,15,21.30
2014,07,27,12,16,21.40
2014,07,27,12,17,21.40
2014,07,27,12,18,21.40
2014,07,27,12,19,21.60
2014,07,27,12,20,21.60
2014,07,27,12,21,21.80
2014,07,27,12,22,21.90
2014,07,27,12,23,21.90
2014,07,27,12,24,22.00
2014,07,27,12,25,22.10
2014,07,27,12,26,22.30
2014,07,27,12,27,22.40
2014,07,27,12,28,22.50
2014,07,27,12,29,22.60
2014,07,27,12,30,22.70
2014,07,27,12,31,22.90
2014,07,27,12,32,23.00
2014,07,27,12,33,23.10
2014,07,27,12,34,23.10
2014,07,27,12,35,22.90
2014,07,27,12,36,23.00
2014,07,27,12,37,23.10
2014,07,27,12,38,23.10
2014,07,27,12,39,23.20
2014,07,27,12,40,23.10
2014,07,27,12,41,23.10
2014,07,27,12,42,23.10
2014,07,27,12,43,23.20
2014,07,27,12,44,23.00
2014,07,27,12,45,22.90
2014,07,27,12,46,22.90
2014,07,27,12,47,22.80
2014,07,27,12,48,22.90
2014,07,27,12,49,22.90
2014,07,27,12,50,22.90
2014,07,27,12,51,22.90
2014,07,27,12,52,22.90
2014,07,27,12,53,22.90
2014,07,27,12,54,22.90
2014,07,27,12,55,22.90
2014,07,27,12,56,22.90
2014,07,27,12,57,23.00
2014,07,27,12,58,23.00
2014,07,27,12,59,22.90
2014,07,27,13,00,22.80
2014,07,27,13,01,22.80
2014,07,27,13,02,22.90
2014,07,27,13,03,23.00
2014,07,27,13,04,23.20
2014,07,27,13,05,23.30
2014,07,27,13,06,23.40
2014,07,27,13,07,23.40
2014,07,27,13,08,23.40
2014,07,27,13,09,23.30
2014,07,27,13,10,23.20
2014,07,27,13,11,23.10
2014,07,27,13,12,23.10
2014,07,27,13,13,23.10
2014,07,27,13,14,23.10
2014,07,27,13,15,23.10
2014,07,27,13,16,23.00
2014,07,27,13,17,22.90
2014,07,27,13,18,22.90
2014,07,27,13,19,22.90
2014,07,27,13,20,22.90
2014,07,27,13,21,22.90
2014,07,27,13,22,22.90
2014,07,27,13,23,23.10
2014,07,27,13,24,23.20
2014,07,27,13,25,23.40
2014,07,27,13,26,23.60
2014,07,27,13,27,23.70
2014,07,27,13,28,23.70
2014,07,27,13,29,23.80
2014,07,27,13,30,23.80
2014,07,27,13,31,23.80
2014,07,27,13,32,23.70
2014,07,27,13,33,23.80
2014,07,27,13,34,23.90
2014,07,27,13,35,24.10
2014,07,27,13,36,24.10
2014,07,27,13,37,24.10
2014,07,27,13,38,24.10
2014,07,27,13,39,24.20
2014,07,27,13,40,24.20
2014,07,27,13,41,24.10
2014,07,27,13,42,24.10
2014,07,27,13,43,24.20
2014,07,27,13,44,24.20
2014,07,27,13,45,24.20
2014,07,27,13,46,24.10
2014,07,27,13,47,24.10
2014,07,27,13,48,24.10
2014,07,27,13,49,24.00
2014,07,27,13,50,23.90
2014,07,27,13,51,23.90
2014,07,27,13,52,24.00
2014,07,27,13,53,24.10
2014,07,27,13,54,24.10
2014,07,27,13,55,24.10
2014,07,27,13,56,24.10
2014,07,27,13,57,24.10
2014,07,27,13,58,24.20
2014,07,27,13,59,24.20
2014,07,27,14,00,24.20
2014,07,27,14,01,24.20
2014,07,27,14,02,24.30
2014,07,27,14,03,24.30
2014,07,27,14,04,24.40
2014,07,27,14,05,24.40
2014,07,27,14,06,24.30
2014,07,27,14,07,24.20
2014,07,27,14,08,24.20
2014,07,27,14,09,24.20
2014,07,27,14,10,24.20
2014,07,27,14,11,24.30
2014,07,27,14,12,24.30
2014,07,27,14,13,24.30
2014,07,27,14,14,24.30
2014,07,27,14,15,24.20
2014,07,27,14,16,24.10
2014,07,27,14,17,24.10
2014,07,27,14,18,24.10
2014,07,27,14,19,24.10
2014,07,27,14,20,24.20
2014,07,27,14,21,24.20
2014,07,27,14,22,24.10
2014,07,27,14,23,24.10
2014,07,27,14,24,24.10
2014,07,27,14,25,24.20
2014,07,27,14,26,24.30
2014,07,27,14,27,24.40
2014,07,27,14,28,24.60
2014,07,27,14,29,24.70
2014,07,27,14,30,24.80
2014,07,27,14,31,24.90
2014,07,27,14,32,25.00
2014,07,27,14,33,25.20
2014,07,27,14,34,25.30
2014,07,27,14,35,25.40
2014,07,27,14,36,25.50
2014,07,27,14,37,25.60
2014,07,27,14,38,25.50
2014,07,27,14,39,25.40
2014,07,27,14,40,25.40
2014,07,27,14,41,25.40
2014,07,27,14,42,25.30
2014,07,27,14,43,25.30
2014,07,27,14,44,25.30
2014,07,27,14,45,25.30
2014,07,27,14,46,25.30
2014,07,27,14,47,25.40
2014,07,27,14,48,25.50
2014,07,27,14,49,25.60
2014,07,27,14,50,25.60
2014,07,27,14,51,25.40
2014,07,27,14,52,25.30
2014,07,27,14,53,25.20
2014,07,27,14,54,25.30
2014,07,27,14,55,25.40
2014,07,27,14,56,25.50
2014,07,27,14,57,25.50
2014,07,27,14,58,25.40
2014,07,27,14,59,25.40
2014,07,27,15,00,25.30
2014,07,27,15,01,25.20
2014,07,27,15,02,25.30
2014,07,27,15,03,25.40
2014,07,27,15,04,25.50
2014,07,27,15,05,25.50
2014,07,27,15,06,25.60
2014,07,27,15,07,25.60
2014,07,27,15,08,25.70
2014,07,27,15,09,25.60
2014,07,27,15,10,25.40
2014,07,27,15,11,25.40
2014,07,27,15,12,25.50
2014,07,27,15,13,25.60
2014,07,27,15,14,25.60
2014,07,27,15,15,25.50
2014,07,27,15,16,25.40
2014,07,27,15,17,25.40
2014,07,27,15,18,25.50
2014,07,27,15,19,25.40
2014,07,27,15,20,25.40
2014,07,27,15,21,25.40
2014,07,27,15,22,25.30
2014,07,27,15,23,25.30
2014,07,27,15,24,25.40
2014,07,27,15,25,25.40
2014,07,27,15,26,25.30
2014,07,27,15,27,25.30
2014,07,27,15,28,25.10
2014,07,27,15,29,25.00
2014,07,27,15,30,25.10
2014,07,27,15,31,25.10
2014,07,27,15,32,25.10
2014,07,27,15,33,25.00
2014,07,27,15,34,24.90
2014,07,27,15,35,24.90
2014,07,27,15,36,25.00
2014,07,27,15,37,25.00
2014,07,27,15,38,25.10
2014,07,27,15,39,25.20
2014,07,27,15,40,25.30
2014,07,27,15,41,25.40
2014,07,27,15,42,25.40
2014,07,27,15,43,25.60
2014,07,27,15,44,25.60
2014,07,27,15,45,25.70
2014,07,27,15,46,25.80
2014,07,27,15,47,25.90
2014,07,27,15,48,26.00
2014,07,27,15,49,26.10
2014,07,27,15,50,26.00
2014,07,27,15,51,26.00
2014,07,27,15,52,26.00
2014,07,27,15,53,26.00
2014,07,27,15,54,25.90
2014,07,27,15,55,25.80
2014,07,27,15,56,25.80
2014,07,27,15,57,25.90
2014,07,27,15,58,26.00
2014,07,27,15,59,26.10
2014,07,27,16,00,26.20
2014,07,27,16,01,26.10
2014,07,27,16,02,26.20
2014,07,27,16,03,26.20
2014,07,27,16,04,26.20
2014,07,27,16,05,26.20
2014,07,27,16,06,26.10
2014,07,27,16,07,26.10
2014,07,27,16,08,26.10
2014,07,27,16,09,26.10
2014,07,27,16,10,26.10
2014,07,27,16,11,26.10
2014,07,27,16,12,26.20
2014,07,27,16,13,26.20
2014,07,27,16,14,26.00
2014,07,27,16,15,26.00
2014,07,27,16,16,25.90
2014,07,27,16,17,25.80
2014,07,27,16,18,25.70
2014,07,27,16,19,25.80
2014,07,27,16,20,25.80
2014,07,27,16,21,25.80
2014,07,27,16,22,25.70
2014,07,27,16,23,25.70
2014,07,27,16,24,25.80
2014,07,27,16,25,25.70
2014,07,27,16,26,25.60
2014,07,27,16,27,25.60
2014,07,27,16,28,25.70
2014,07,27,16,29,25.80
2014,07,27,16,30,25.90
2014,07,27,16,31,26.00
2014,07,27,16,32,26.00
2014,07,27,16,33,26.10
2014,07,27,16,34,26.20
2014,07,27,16,35,26.30
2014,07,27,16,36,26.30
2014,07,27,16,37,26.30
2014,07,27,16,38,26.30
2014,07,27,16,39,26.30
2014,07,27,16,40,26.20
2014,07,27,16,41,26.10
2014,07,27,16,42,26.00
2014,07,27,16,43,25.90
2014,07,27,16,44,25.90
2014,07,27,16,45,25.90
2014,07,27,16,46,25.80
2014,07,27,16,47,25.80
2014,07,27,16,48,25.90
2014,07,27,16,49,25.90
2014,07,27,16,50,25.90
2014,07,27,16,51,25.90
2014,07,27,16,52,26.00
2014,07,27,16,53,26.00
2014,07,27,16,54,26.10
2014,07,27,16,55,26.10
2014,07,27,16,56,26.10
2014,07,27,16,57,26.00
2014,07,27,16,58,26.00
2014,07,27,16,59,26.00
2014,07,27,17,00,26.10
2014,07,27,17,01,26.20
2014,07,27,17,02,26.20
2014,07,27,17,03,26.10
2014,07,27,17,04,26.00
2014,07,27,17,05,26.00
2014,07,27,17,06,25.90
2014,07,27,17,07,25.90
2014,07,27,17,08,25.90
2014,07,27,17,09,26.00
2014,07,27,17,10,26.00
2014,07,27,17,11,26.10
2014,07,27,17,12,26.00
2014,07,27,17,13,25.90
2014,07,27,17,14,25.90
2014,07,27,17,15,25.90
2014,07,27,17,16,25.90
2014,07,27,17,17,25.80
2014,07,27,17,18,25.80
2014,07,27,17,19,25.80